{"data":{"norad_id":54064,"epoch":"2026-09-20T08:28:31.990656Z","epoch_age_seconds":99116,"freshness":"FRESH","line1":"1 54064U 22136P   26263.35314804  .00000326  00000+0  22268-4 0  9994","line2":"2 54064  53.1597 131.1958 0001053  82.2678 277.8443 15.31697514217053","mean_motion":15.31697514,"eccentricity":0.0001053,"inclination_deg":53.1597,"raan_deg":131.1958,"arg_perigee_deg":82.2678,"mean_anomaly_deg":277.8443,"bstar":2.2268e-5,"rev_number":21705,"period_min":94.013340547865,"perigee_km":470.02621834437,"apogee_km":471.46859340025,"semimajor_km":6848.8844058723,"source":"CELESTRAK","updated_at":"2026-09-21T09:00:33.077995Z"}}